Location: Roland
(31.1349°N, 85.4372°W)
Time: 04:18:08
(UTC+00:00)

Vanguard 2 Rocket - Pass Details

Date: 01 December 2021
Orbit: 554 x 3324 km, 32.9° (Epoch: 16 January)

Event Time Altitude Azimuth Distance (km) Brightness Sun altitude
Exits shadow 06:41:06 17° 142° (SE) 5,648 10.8 -71.8°
Drops below altitude 10° 06:44:20 10° 138° (SE) 6,248 11.1 -71.1°
Sets 06:49:13 0° 135° (SE) 7,166 11.6 -70.2°
